This is the latest recevied weather packets stored in our database for station/object G4WLC-1. If no packets are shown the sender has not sent any weather packets the latest 10 day(s).
| Time | Temp. | Humidity | Pressure | Rain* | Wind** | Luminosity | Snow |
|---|---|---|---|---|---|---|---|
| 1777457301 | 16.11° C | 51% | 1023.5 hPa | 0 mm | - | - | - |
| 1777457001 | 16.11° C | 54% | 1023.6 hPa | 0 mm | - | - | - |
| 1777456701 | 15.56° C | 53% | 1023.7 hPa | 0 mm | - | - | - |
| 1777456401 | 15° C | 59% | 1023.7 hPa | 0 mm | - | - | - |
| 1777456101 | 15° C | 60% | 1023.6 hPa | 0 mm | - | - | - |
| 1777455801 | 14.44° C | 62% | 1023.8 hPa | 0 mm | - | - | - |
| 1777455501 | 14.44° C | 66% | 1023.6 hPa | 0 mm | - | - | - |
| 1777455201 | 13.89° C | 68% | 1023.7 hPa | 0 mm | - | - | - |
| 1777454901 | 13.33° C | 67% | 1023.8 hPa | 0 mm | - | - | - |
| 1777454601 | 13.33° C | 70% | 1023.8 hPa | 0 mm | - | - | - |
| 1777454301 | 12.78° C | 70% | 1023.8 hPa | 0 mm | - | - | - |
| 1777454001 | 12.78° C | 70% | 1023.8 hPa | 0 mm | - | - | - |
| 1777453701 | 12.22° C | 71% | 1023.9 hPa | 0 mm | - | - | - |
| 1777453401 | 12.22° C | 70% | 1023.9 hPa | 0 mm | - | - | - |
| 1777453101 | 12.22° C | 72% | 1023.9 hPa | 0 mm | - | - | - |
| 1777452801 | 11.67° C | 72% | 1023.9 hPa | 0 mm | - | - | - |
| 1777452501 | 11.11° C | 74% | 1023.8 hPa | 0 mm | - | - | - |
| 1777452201 | 11.11° C | 74% | 1023.8 hPa | 0 mm | - | - | - |
| 1777451901 | 11.11° C | 74% | 1023.8 hPa | 0 mm | - | - | - |
| 1777451601 | 10.56° C | 76% | 1023.7 hPa | 0 mm | - | - | - |
| 1777451301 | 10.56° C | 76% | 1023.6 hPa | 0 mm | - | - | - |
| 1777451001 | 10.56° C | 77% | 1023.8 hPa | 0 mm | - | - | - |
| 1777450701 | 10° C | 78% | 1023.8 hPa | 0 mm | - | - | - |
| 1777450401 | 10° C | 78% | 1024 hPa | 0 mm | - | - | - |
| 1777450101 | 9.44° C | 79% | 1024.2 hPa | 0 mm | - | - | - |
* Rain latest hour (hover to see other rain measurements)
** Current wind speed in m/s (hover to see current wind gust speed)